Deer Park, WA
on Tuesday, January 1, 2013

Tuesday
Previous Day Next Day
Daily Summary
 ActualAverageRecord
Temperature
Mean Temperature °F 25°F  
Max Temperature 23°F 31°F 43°F (2006)
Min Temperature 3°F 19°F -15°F (2011)
Degree Days
Heating Degree Days 52 40  
Month to date heating degree days 52 40  
Since 1 July heating degree days 2845 3267  
Cooling Degree Days 0 0  
Month to date cooling degree days 0 0  
Year to date cooling degree days 0 0  
Moisture
Dew Point 13°F   
Average Humidity 92    
Maximum Humidity 100    
Minimum Humidity 84    
Precipitation
Precipitation 0.00 in 0.11 in 0.50 in (2009)
Month to date precipitation 0.00 0.11  
Year to date precipitation 0.00 0.11  
Wind
Wind Speed 1 mph   
Max Wind Speed 6 mph   
Max Gust Speed 6 mph   
Visibility 4 miles   
Events Fog   

Key: T is trace of precipitation, MM is missing value
Source: NWS Daily Summary
Time(PST)TemperatureDew PointHumidity Pressure Visibility Wind DirectionWind SpeedGust SpeedPrecipitationEvents Conditions
12:29 AM 3.2°F 1.4°F 92% 30.41 in 10.0 miles Calm Calm - N/A   Mostly Cloudy
12:53 AM 3.9°F 1.9°F 91% 30.52 in 10.0 miles Calm Calm - N/A   Scattered Clouds
1:21 AM 6.8°F 3.2°F 85% 30.41 in 1.8 miles NW 3.5 mph - N/A   Scattered Clouds
1:28 AM 6.8°F 5.0°F 92% 30.41 in 1.2 miles NW 3.5 mph - N/A   Mostly Cloudy
1:36 AM 3.2°F 1.4°F 92% 30.41 in 3.0 miles NW 3.5 mph - N/A   Mostly Cloudy
1:43 AM 5.0°F 1.4°F 85% 30.41 in 1.5 miles Calm Calm - N/A   Overcast
1:53 AM 5.0°F 1.0°F 84% 30.53 in 5.0 miles Calm Calm - N/A   Overcast
1:59 AM 6.8°F 3.2°F 85% 30.42 in 1.5 miles Calm Calm - N/A   Overcast
2:08 AM 6.8°F 3.2°F 85% 30.43 in 0.8 miles Calm Calm - N/A   Mist
2:12 AM 5.0°F 1.4°F 85% 30.43 in 2.0 miles Calm Calm - N/A   Overcast
2:17 AM 6.8°F 3.2°F 85% 30.44 in 0.8 miles Calm Calm - N/A   Mist
2:37 AM 6.8°F 5.0°F 92% 30.44 in 2.5 miles Calm Calm - N/A   Overcast
2:44 AM 5.0°F 3.2°F 92% 30.44 in 3.0 miles Calm Calm - N/A   Overcast
2:46 AM 5.0°F 3.2°F 92% 30.44 in 0.8 miles Calm Calm - N/A   Mist
2:53 AM 3.9°F 1.0°F 88% 30.56 in 0.2 miles Calm Calm - N/A Fog Light Freezing Fog
3:53 AM 8.1°F 6.1°F 92% 30.58 in 0.2 miles Calm Calm - N/A Fog Light Freezing Fog
4:53 AM 12.0°F 10.0°F 92% 30.60 in 0.5 miles Calm Calm - N/A Fog Light Freezing Fog
5:28 AM 12.2°F 10.4°F 92% 30.48 in 1.0 miles NW 3.5 mph - N/A   Mist
5:39 AM 12.2°F 10.4°F 92% 30.48 in 3.0 miles NW 3.5 mph - N/A   Overcast
5:53 AM 12.9°F 10.9°F 92% 30.61 in 6.0 miles NW 3.5 mph - N/A   Overcast
6:53 AM 14.0°F 12.0°F 92% 30.61 in 5.0 miles NW 3.5 mph - N/A   Overcast
7:09 AM 14.0°F 12.2°F 93% 30.48 in 1.8 miles Calm Calm - N/A   Overcast
7:39 AM 14.0°F 12.2°F 93% 30.48 in 0.8 miles Calm Calm - N/A   Mist
7:46 AM 14.0°F 12.2°F 93% 30.49 in 2.0 miles Calm Calm - N/A   Overcast
7:53 AM 14.0°F 12.9°F 95% 30.62 in 2.5 miles Calm Calm - N/A   Overcast
8:01 AM 15.8°F 12.2°F 86% 30.50 in 3.0 miles North 3.5 mph - N/A   Overcast
8:29 AM 15.8°F 14.0°F 93% 30.50 in 4.0 miles Calm Calm - N/A   Overcast
8:53 AM 17.1°F 14.0°F 88% 30.64 in 4.0 miles Calm Calm - N/A   Overcast
9:08 AM 17.6°F 15.8°F 93% 30.52 in 5.0 miles Calm Calm - N/A   Overcast
9:18 AM 17.6°F 15.8°F 93% 30.52 in 4.0 miles Calm Calm - N/A   Overcast
9:53 AM 17.1°F 16.0°F 96% 30.66 in 4.0 miles Calm Calm - N/A   Overcast
10:53 AM 19.0°F 19.0°F 100% 30.67 in 4.0 miles Calm Calm - N/A   Overcast
11:53 AM 19.9°F 19.0°F 96% 30.66 in 4.0 miles Calm Calm - N/A   Overcast
12:53 PM 21.0°F 19.9°F 96% 30.66 in 5.0 miles Calm Calm - N/A   Overcast
1:53 PM 21.9°F 19.9°F 92% 30.66 in 5.0 miles SSE 3.5 mph - N/A   Overcast
2:46 PM 21.2°F 21.2°F 100% 30.53 in 5.0 miles Calm Calm - N/A   Overcast
2:53 PM 21.9°F 21.0°F 96% 30.66 in 5.0 miles Calm Calm - N/A   Overcast
2:59 PM 21.2°F 21.2°F 100% 30.53 in 5.0 miles Calm Calm - N/A   Overcast
3:15 PM 23.0°F 21.2°F 93% 30.53 in 5.0 miles Calm Calm - N/A   Overcast
3:26 PM 21.2°F 21.2°F 100% 30.53 in 6.0 miles Calm Calm - N/A   Overcast
3:50 PM 23.0°F 21.2°F 93% 30.54 in 6.0 miles Calm Calm - N/A   Overcast
3:53 PM 21.9°F 21.0°F 96% 30.66 in 6.0 miles Calm Calm - N/A   Overcast
4:53 PM 21.9°F 19.9°F 92% 30.67 in 7.0 miles West 3.5 mph - N/A   Overcast
5:53 PM 21.9°F 19.9°F 92% 30.66 in 5.0 miles Calm Calm - N/A   Overcast
6:53 PM 21.0°F 19.0°F 92% 30.66 in 6.0 miles Calm Calm - N/A   Overcast
7:14 PM 21.2°F 19.4°F 93% 30.55 in 6.0 miles Calm Calm - N/A   Overcast
7:36 PM 21.2°F 19.4°F 93% 30.55 in 6.0 miles Calm Calm - N/A   Overcast
7:53 PM 21.0°F 19.0°F 92% 30.66 in 6.0 miles Calm Calm - N/A   Overcast
8:53 PM 21.0°F 19.0°F 92% 30.66 in 6.0 miles Calm Calm - N/A   Overcast
9:53 PM 21.0°F 19.0°F 92% 30.66 in 7.0 miles Calm Calm - N/A   Overcast
10:53 PM 21.0°F 19.0°F 92% 30.66 in 6.0 miles Calm Calm - N/A   Overcast
11:27 PM 21.2°F 19.4°F 93% 30.56 in 5.0 miles Calm Calm - N/A   Overcast
11:53 PM 21.0°F 19.0°F 92% 30.66 in 6.0 miles Calm Calm - N/A   Overcast
Moon Phase
Jan. 01 Jan. 04 Jan. 11 Jan. 18 Jan. 26
Sunrise:07:39 AM (PST) Moon Rise:09:05 PM (PST)1/1
Sunset:04:07 PM (PST) Moon Set:09:33 AM (PST)1/1

Copyright © 2014 The Weather Underground, Inc.